www.pogodaiklimat.ru

Погода и климат >> Архив погоды >> Канада >> Ньюфаундленд и Лабрадор >> Черчилл Фолс


ПОГОДА в Черчилл Фолс

  • Прогноз погоды в Черчилл Фолс
  • Монитор погоды в Черчилл Фолс

АРХИВ ПОГОДЫ в Черчилл Фолс

Время (UTC), дата Ветер
(напр.,м/с)
 
Видим.   Явления Облачность Т
(С)
Тd
(С)
f
(%)
Тe
(С)
Тes
(С)
Комфортность P
(гПа)
Po
(гПа)
Тmin
(С)
Tmax
(С)
R
(мм)
R24
(мм)
S
(см)
12 13.06 СЗ 5 16 км ясно +7.1 +1.3 67 +3 +4 1018.8 965.0 +3.2 +15.4
15 13.06 СЗ 6 16 км ясно +11.7 -0.2 44 +9 +12 1019.9 966.3
18 13.06 СЗ 4 16 км ясно +15.6 -1.5 31 +15 +25 1020.2 966.8 +3.2 +16.0
21 13.06 В 4 16 км ясно +17.1 -1.1 29 +17 +28 1020.6 967.2
00 14.06 В 4 16 км ясно +13.5 +1.0 42 +12 +16 1020.6 967.2 +3.2 +17.8
03 14.06 В 3 16 км ясно +8.6 +1.1 59 +6 +6 1020.6 967.2
06 14.06 ЮВ 4 16 км 9/0
[]
+10.5 +0.3 49 +9 +9 1020.1 967.0 +3.2 +17.8 7
09 14.06 В 7 16 км 10/0
[]
+9.3 +4.4 71 +6 +6 1019.0 966.0
12 14.06 ЮВ 7 16 км 3/0 2000 м
[]
+12.4 +3.8 56 +10 +10 1018.1 965.1 +8.1 +17.8
15 14.06 ЮВ 6 16 км 5/0
[]
+15.1 +2.0 41 +14 +16 1016.9 963.9
18 14.06 В 6 16 км 10/0 2000 м
[]
+15.0 +2.9 44 +14 +16 1014.2 961.4 +8.1 +16.0
21 14.06 В 9 16 км 10/10 1500 м
[]
+15.2 +5.9 54 +13 +13 1012.1 959.4
00 15.06 В 6 16 км слаб. дождь 10/10 1000 м
[]
+11.5 +6.7 72 +9 +9 1012.3 959.5 +9.3 +16.0
03 15.06 В 3 14 км слаб. дождь 10/10 600 м
[]
+9.3 +7.6 89 +7 +7 1011.5 958.8
06 15.06 ЮВ 3 14 км слаб. дождь {осадки} 10/10 300 м
[]
+8.5 +7.4 93 +6 +6 1011.1 958.4 +8.5 +16.0 4 211
09 15.06 ЮВ 3 16 км {осадки} 10/10 300 м
[]
+8.1 +7.2 94 +5 +5 1010.9 958.2
12 15.06 В 5 16 км 10/10 200 м
[]
+9.1 +7.6 90 +6 +6 1011.0 958.1 +8.0 +16.0 0.5
15 15.06 ЮВ 3 16 км 10/10 300 м
[]
+10.9 +8.1 83 +9 +9 1010.9 958.0
18 15.06 ЮВ 5 16 км 10/10 300 м
[]
+12.6 +8.2 75 +11 +11 1009.9 957.1 +8.0 +12.8
21 15.06 ЮВ 5 16 км 9/9 1000 м
[]
+13.3 +8.4 72 +11 +12 1009.8 957.0
00 16.06 В 4 16 км 10/10 1000 м
[]
+11.6 +8.5 81 +9 +9 1009.4 956.6 +8.0 +14.1
03 16.06 В 5 16 км 9/9 300 м
[]
+10.3 +8.1 86 +7 +7 1009.4 956.6
06 16.06 ЮВ 5 16 км 10/10 300 м
[]
+9.2 +7.8 91 +6 +6 1008.8 956.1 +8.0 +14.1 22
09 16.06 ЮВ 6 16 км слаб. дождь {осадки} 10/10 100 м
[]
+8.4 +7.7 95 +4 +4 1008.3 955.6
12 16.06 ЮВ 6 16 км слаб. дождь {осадки} 10/10 100 м
[]
+8.8 +8.2 96 +5 +5 1007.7 955.0 +8.3 +14.1 4
15 16.06 В 7 16 км слаб. дождь {осадки} 10/10 100 м
[]
+9.5 +8.7 95 +5 +5 1007.2 954.5
18 16.06 ЮВ 6 16 км слаб. дождь {осадки} 10/10 200 м
[]
+9.5 +8.7 95 +6 +6 1007.1 954.3 +8.3 +10.0 8
21 16.06 ЮВ 4 16 км слаб. дождь 10/10 300 м
[]
+9.5 +8.6 94 +7 +7 1007.3 954.5
00 17.06 ЮВ 3 16 км {осадки} 10/10 300 м
[]
+9.6 +9.0 96 +7 +7 1007.6 954.8 +8.3 +10.0 0.5
03 17.06 ЮВ 4 16 км 10/10 300 м
[]
+8.9 +8.3 96 +6 +6 1008.2 955.4
06 17.06 ЮВ 3 16 км 10/10 200 м
[]
+8.6 +8.0 96 +6 +6 1007.9 955.1 +8.3 +10.0 15
09 17.06 ЮВ 3 16 км 10/10 300 м
[]
+8.5 +8.1 97 +6 +6 1008.8 955.9
12 17.06 ЮВ 2 14 км слаб. дождь 10/10 200 м
[]
+9.9 +9.3 96 +8 +8 1009.2 956.4 +8.5 +10.0 0.3
15 17.06 ЮЗ 1 16 км слаб. дождь {осадки} 10/10 1500 м
[]
+10.8 +9.9 94 +10 +10 1009.1 956.3
18 17.06 В 4 16 км {осадки} 9/9 600 м
[]
+13.8 +9.9 77 +12 +14 1008.3 955.7 +8.5 +13.8 3
21 17.06 В 3 16 км слаб. дождь {осадки} 10/10 1000 м
[]
+11.5 +10.4 93 +10 +10 1008.8 956.0
00 18.06 Ю 1 16 км {осадки} 9/0 2000 м
[]
+10.3 +8.9 91 +10 +13 1008.9 956.1 +8.5 +13.8 7
03 18.06 З 1 16 км {осадки} 10/10 1000 м
[]
+6.2 +5.9 98 +5 +5 1010.0 957.0
06 18.06 З 1 16 км 10/0
[]
+6.0 +5.7 98 +6 +6 1009.6 956.8 +5.6 +13.8
09 18.06 З 2 16 км 10/10 300 м
[]
+7.6 +7.2 97 +6 +6 1010.0 957.1
12 18.06 СЗ 3 16 км 10/10 300 м
[]
+9.9 +8.1 89 +8 +8 1010.4 957.5 +4.8 +13.8
15 18.06 З 3 9000 м слаб. дождь 10/10 600 м
[]
+11.2 +9.2 87 +10 +10 1010.6 957.6
18 18.06 З 3 16 км слаб. дождь {осадки} 9/9 600 м
[]
+13.8 +9.4 75 +13 +14 1009.6 956.8 +4.8 +14.1 0.8
21 18.06 СЗ 2 16 км {осадки} 10/10 1500 м
[]
+14.0 +7.1 63 +14 +14 1009.7 956.9
00 19.06 СЗ 1 16 км 10/10 1000 м
[]
+12.5 +8.2 75 +13 +13 1009.9 957.2 +4.8 +14.7
03 19.06 штиль 0 16 км 9/9 1500 м
[]
+8.6 +7.4 92 +8 +8 1010.2 957.3
06 19.06 СЗ 1 16 км 5/0
[]
+6.5 +5.8 95 +5 +5 1010.0 957.2 +4.8 +14.7
09 19.06 З 1 16 км 10/10 1500 м
[]
+7.0 +6.6 97 +6 +6 1010.1 957.3
12 19.06 З 2 16 км 10/10 1000 м
[]
+11.8 +8.2 79 +11 +11 1010.1 957.5 +4.1 +14.7
15 19.06 СЗ 3 16 км {осадки} 10/10 1000 м
[]
+13.1 +7.9 71 +12 +12 1009.9 957.1
18 19.06 Ю 2 16 км слаб. дождь {осадки} 10/10 600 м
[]
+13.5 +9.2 75 +13 +13 1009.8 957.0 +4.1 +15.0 0.3
21 19.06 С 2 16 км {осадки} 9/0 2000 м
[]
+13.6 +8.2 70 +13 +21 1009.5 956.7
00 20.06 В 4 16 км {осадки} н/о +12.4 +8.5 77 +11 +11 1009.4 956.8 +4.1 +15.4 0.5
03 20.06 СВ 2 16 км 5/0
[]
+8.0 +6.9 93 +6 +6 1009.9 957.1
06 20.06 СВ 2 16 км 9/0
[]
+7.7 +7.1 96 +5 +5 1009.4 956.6 +4.1 +15.4
09 20.06 В 2 16 км слаб. дождь 10/10 1000 м
[]
+9.0 +8.6 97 +7 +7 1009.2 956.5

 

Местоположение метеостанции Черчилл Фолс (Ньюфаундленд и Лабрадор, Канада): широта 53.02 долгота -110.10 высота над уровнем моря 669 м.

В архиве по умолчанию представлена погода в Черчилл Фолс за последнюю неделю. Архивные данные за месяц целиком и за предыдущие месяцы, начиная с января 2011 года, Вы можете получить, выбрав интересующий диапазон дат из раскрывающегося списка и нажав кнопку "Ввод!".


*Определитесь, кто Вы:
робот инопланетянин человек

Внимание! Время в таблицах - всемирное. Для получения местного времени необходимо прибавить поправку, которая равна -6 ч.

Смотрите также архив погоды в соседних городах и на ближайших метеорологических станциях:

Погода в Риверкорсе (Альберта, Канада) (1 км)
Погода в Ллойдминстере (Альберта, Канада) (34 км)
Погода в Эджертоне (Альберта, Канада) (35 км)
Погода в Гилт Эдж Норд (Альберта, Канада) (35 км)
Погода в Китскоти (Альберта, Канада) (42 км)
Погода в Рибстоне (Альберта, Канада) (51 км)
Погода в Вермилейне (Альберта, Канада) (58 км)
Погода в Хагендене (Альберта, Канада) (68 км)
Погода в Уэйнрайте (Альберта, Канада) (71 км)
Погода в Альберт-холле (Альберта, Канада) (72 км)

Пояснения к столбцам:

Ветер - указаны скорость ветра в м/с - средняя за 10 мин, порывы в срок и между сроками (в фигурных скобках) и направление, откуда дует ветер: С - северный, СВ - северо-восточный, В - восточный, ЮВ - юго-восточный, Ю - южный, ЮЗ - юго-западный, З - западный, СЗ - северо-западный.
Видимость - горизонтальная дальность видимости в метрах или километрах. При видимости от 1 до 10 км при отсутствии осадков обычно наблюдается дымка, при ухудшении видимости до 1 км и менее - туман. В сухую погоду видимость может ухудшаться дымом, пылью или мглою.
Явления - указаны атмосферные явления, наблюдавшиеся в срок или в последний час перед сроком; фигурными скобками обозначены явления, наблюдавшиеся между сроками (за 1-3 часа до срока); квадратными скобками обозначены град или гололедные отложения с указанием их диаметра в мм.
Облачность - указаны через наклонную черту общая и нижняя облачность в баллах и высота нижней границы облаков в метрах; квадратными скобками обозначены формы облаков: Ci - перистые, Cs - перисто-слоистые, Cc - перисто-кучевые, Ac - высококучевые, As - высокослоистые, Sc - слоисто-кучевые, Ns - слоисто-дождевые, Cu - кучевые, Cb - кучево-дождевые. Подробнее классификацию облаков см. в Атласе облаков (PDF).
T - Температура воздуха - температура, измеренная на высоте 2 м над землей.
Td - Температура точки росы - температура, при понижении до которой содержащийся в воздухе водяной пар достигнет насыщения.
f - Относительная влажность воздуха - влажноcть воздуха, измеренная на высоте 2 м над землей.
Te - Эффективная температура - температура, которую ощущает одетый по сезону человек в тени. Характеристика душности погоды. При расчете учитывается влияние влажности воздуха и скорости ветра на теплоощущения человека.
Tes - Эффективная температура на солнце - температура, которую ощущает человек, с поправкой на солнечный нагрев. Характеристика знойности погоды. Зависит от высоты солнца над горизонтом, облачности и скорости ветра. Ночью, в пасмурную погоду, а также при ветре 12 м/с и более поправка равна нулю.
P - Атмосферное давление - приведенное к уровню моря атмосферное давление.
Po - Атмосферное давление - измеренное на уровне метеостанции атмосферное давление.
Tmin - Минимальная температура - минимум температуры воздуха на высоте 2 м над землей.
Tmax - Максимальная температура - максимум температуры воздуха на высоте 2 м над землей.
R - Количество осадков - Количество выпавших осадков за период времени, мм. При наведении курсора мыши на число - период времени, за который выпало указанное количество осадков.
R24 - Количество осадков - Количество выпавших осадков за 24 часа, мм.
S - Снежный покров - Высота снежного покрова, см. При наведении курсора мыши на число - состояние снежного покрова и степень покрытия местности в баллах.